[Iaude] MPEC C54: 2024 CS [a=1.56,e=0.42,i=26.6,H=25.4]
    mpec at cfa.harvard.edu 
    mpec at cfa.harvard.edu
       
    Mon Feb  5 14:08:10 EST 2024
    
    
  
M.P.E.C. 2024-C54                              Issued 2024 February 5, 19:06 UT
     The Minor Planet Electronic Circulars contain information on unusual
         minor planets, routine data on comets and natural satellites,
         and occasional editorial announcements.  They are published
    on behalf of Division F of the International Astronomical Union by the
          Minor Planet Center, Smithsonian Astrophysical Observatory,
                          Cambridge, MA 02138, U.S.A.
			  
             Prepared using the Tamkin Foundation Computer Network
                              MPC at CFA.HARVARD.EDU
            URL https://www.minorplanetcenter.net/    ISSN 1523-6714
                                    2024 CS                                     
Observations:
     K24C00S* C2024 02 01.19741808 00 40.750-21 14 13.60         15.78oVEC054W68
     K24C00S  C2024 02 01.20058608 00 58.555-21 00 10.22         15.59oVEC054W68
     K24C00S  C2024 02 01.20603108 01 29.424-20 35 46.03         15.96oVEC054W68
     K24C00S  C2024 02 01.21844708 02 39.094-19 40 11.24         16.02oVEC054W68
     K24C00S  C2024 02 05.34005611 17 49.985+66 15 47.09         20.32GVEC054V00
     K24C00S  C2024 02 05.34496511 17 54.118+66 16 19.31         20.46GVEC054V00
     K24C00S  C2024 02 05.34985511 17 58.247+66 16 51.38         21.14GVEC054V00
     K24C00S  C2024 02 05.35474711 18 02.315+66 17 23.03         20.18GVEC054V00
     K24C00S  C2024 02 05.39868111 18 35.906+66 21 50.65         19.8 GVEC054H01
     K24C00S  C2024 02 05.40443411 18 40.574+66 22 24.51         20.1 GVEC054H01
     K24C00S KC2024 02 05.40948011 18 35.72 +66 22 22.4          20.5 GVEC054H21
     K24C00S  C2024 02 05.41195511 18 46.672+66 23 08.48         19.8 GVEC054H01
     K24C00S KC2024 02 05.41227611 18 38.09 +66 22 37.9          20.4 GVEC054H21
     K24C00S  C2024 02 05.42324711 18 55.811+66 24 13.33         20.0 GVEC054H01
     K24C00S 1C2024 02 05.78084 11 24 55.62 +66 52 46.7          20.5 VXEC054033
     K24C00S 1C2024 02 05.78171 11 24 56.42 +66 52 51.2          20.3 VXEC054033
     K24C00S 1C2024 02 05.78257 11 24 57.30 +66 52 56.2          20.1 VXEC054033
Observer details:
033 Karl Schwarzschild Observatory, Tautenburg.  Observers S. Melnikov, C.
    Hogner, F. Ludwig, M. Hartmann, B. Stecklum.  Measurer B. Stecklum.
    1.34-m f/3 Schmidt + CCD.
H01 Magdalena Ridge Observatory, Socorro.  Observers W. H. Ryan, E. V. Ryan.
    Measurer W. H. Ryan.  2.4-m f/8.9 Ritchey-Chretien + CCD.
H21 Astronomical Research Observatory, Westfield.  Observer R. Holmes.
    Measurers T. Linder, R. Holmes, L. Horn.  0.76-m f/3.0 astrograph + CCD.
V00 Kitt Peak-Bok.  Observer K. W. Wierzchos.  Measurers M. J. Brucker, C. E.
    Woodward, D. Fay, J. B. Fazekas, D. C. Fuls, A. R. Gibbs, H. Groeller, J.
    K. Hogan, R. A. Kowalski, S. M. Larson, C. Lejoly, G. J. Leonard, R. A.
    Mastaler, R. S. McMillan, D. Rankin, R. L. Seaman, A. Serrano, F. C.
    Shelly, K. W. Wierzchos.  2.25-m reflector + 4x4K mosaic CCD.
W68 ATLAS Chile, Rio Hurtado.  Observers L. Denneau, R. Siverd, J. Tonry, H.
    Weiland.  Measurers L. Denneau, N. Erasmus, A. Fitzsimmons, A. Lawrence,
    J. Robinson, R. Siverd, J. Tonry, H. Weiland.  0.5-m Reflector + CCD.
Orbital elements:
2024 CS                                                  Earth MOID = 0.0055 AU
Epoch 2023 Sept. 13.0 TT = JDT 2460200.5                MPC                     
M 306.04516              (2000.0)            P               Q                  
n   0.50496831     Peri.  315.53651     -0.01198800     -0.94298324             
a   1.5618044      Node   131.99554     +0.99586333     -0.04122295             
e   0.4179067      Incl.   26.58716     +0.09006949     +0.33027756             
P   1.95           H   25.40          G   0.15           U   8                  
Residuals in seconds of arc
240201 W68  0.5+  1.1+    240205 V00  0.1+  0.1+    240205 H21  0.0   0.0
240201 W68  0.3-  0.1-    240205 V00  0.1+  0.0     240205 H01  0.1+  0.0
240201 W68 (2.4+  8.0+)   240205 H01  0.1+  0.1+    240205 033  0.8-  0.3-
240201 W68  0.2-  1.0-    240205 H01  0.1+  0.0     240205 033  0.7-  0.7-
240205 V00  0.1-  0.0     240205 H21  0.1-  0.0     240205 033  0.1-  0.5-
240205 V00  0.1-  0.1-    240205 H01  0.1+  0.0
Ephemeris:
2024 CS                  a,e,i = 1.56, 0.42, 27                  q = 0.9091
Date    TT    R. A. (2000) Decl.     Delta      r    Elong.  Phase     V
2024 01 06    00 42 06.6 -72 05 47   0.2519  0.9141    66.8    98.5    25.8
...
2024 01 21    01 29 16.3 -72 53 40   0.1112  0.9477    67.9   105.9    24.4
...
2024 01 29    03 25 26.2 -72 53 06   0.03382 0.9770    75.7   102.4    21.7
...
2024 02 04    10 47 37.9 +62 34 59   0.02653 1.0032   130.7    48.1    19.3
2024 02 05    11 11 25.4 +65 35 04   0.03609 1.0078   126.7    51.6    20.1
2024 02 06    11 27 39.0 +67 11 01   0.04576 1.0126   124.4    53.4    20.7
...
2024 02 12    12 06 07.7 +69 54 14   0.1042  1.0425   119.7    55.4    22.6
...
2024 02 20    12 15 05.7 +70 06 58   0.1821  1.0860   118.0    53.5    23.8
...
2024 03 06    12 07 57.2 +68 22 44   0.3271  1.1750   116.5    49.1    25.2
A. U. Tomatic                (C) Copyright 2024 MPC           M.P.E.C. 2024-C54
    
    
More information about the Iaude
mailing list